• en Suisse
  • Liste des pays
  • À 7 jours
  • Température de l'eau
  • Carte satellitaire
  • Carte météo
  • Widgets météo
  • user-avatar
    Se connecter

    Météo par heure à Zaozere

    Ce jour, 17 Août, Vendredi

    Heure Température Précipitation Vent Pression Humidité
    00:00 +14°C° 0 mm 1 m/s 759 mmHg 87%
    01:00 +14°C° 0 mm 1 m/s 759 mmHg 88%
    02:00 +14°C° 0 mm 1 m/s 759 mmHg 91%
    03:00 +14°C° 0 mm 1 m/s 760 mmHg 92%
    04:00 +13°C° 0 mm 1 m/s 760 mmHg 92%
    05:00 +13°C° 0 mm 1 m/s 760 mmHg 93%
    06:00 +15°C° 0 mm 2 m/s 760 mmHg 86%
    07:00 +17°C° 0 mm 2 m/s 760 mmHg 80%
    08:00 +19°C° 0 mm 2 m/s 760 mmHg 73%
    09:00 +20°C° 0 mm 2 m/s 760 mmHg 67%
    10:00 +23°C° 0 mm 2 m/s 760 mmHg 62%
    11:00 +24°C° 0 mm 2 m/s 760 mmHg 56%
    12:00 +25°C° 0 mm 2 m/s 760 mmHg 54%
    13:00 +25°C° 0 mm 2 m/s 759 mmHg 53%
    14:00 +26°C° 0 mm 2 m/s 759 mmHg 51%
    15:00 +26°C° 0 mm 2 m/s 759 mmHg 54%
    16:00 +25°C° 0 mm 2 m/s 759 mmHg 56%
    17:00 +25°C° 0 mm 2 m/s 758 mmHg 59%
    18:00 +23°C° 0 mm 2 m/s 758 mmHg 66%
    19:00 +20°C° 0 mm 2 m/s 758 mmHg 73%
    20:00 +20°C° 0 mm 1 m/s 758 mmHg 81%
    21:00 +18°C° 0 mm 2 m/s 758 mmHg 83%
    22:00 +17°C° 0 mm 2 m/s 758 mmHg 86%
    23:00 +17°C° 0 mm 2 m/s 758 mmHg 88%

    Demain, 18 Août, Samedi

    Heure Température Précipitation Vent Pression Humidité
    00:00 +16°C° 0 mm 2 m/s 758 mmHg 90%
    01:00 +16°C° 0 mm 2 m/s 758 mmHg 91%
    02:00 +16°C° 0 mm 2 m/s 758 mmHg 93%
    03:00 +15°C° 0 mm 2 m/s 758 mmHg 94%
    04:00 +15°C° 0 mm 2 m/s 758 mmHg 95%
    05:00 +15°C° 0 mm 2 m/s 758 mmHg 96%
    06:00 +17°C° 0 mm 2 m/s 758 mmHg 90%
    07:00 +19°C° 0 mm 2 m/s 758 mmHg 83%
    08:00 +20°C° 0 mm 2 m/s 758 mmHg 77%
    09:00 +22°C° 0,1 mm 3 m/s 758 mmHg 73%
    10:00 +24°C° 0,1 mm 3 m/s 758 mmHg 69%
    11:00 +26°C° 0,1 mm 3 m/s 757 mmHg 65%
    12:00 +26°C° 0,3 mm 3 m/s 757 mmHg 65%
    13:00 +26°C° 0,3 mm 3 m/s 757 mmHg 66%
    14:00 +26°C° 0,3 mm 3 m/s 756 mmHg 66%
    15:00 +26°C° 0,3 mm 3 m/s 756 mmHg 68%
    16:00 +26°C° 0,3 mm 3 m/s 756 mmHg 70%
    17:00 +25°C° 0,3 mm 3 m/s 756 mmHg 72%
    18:00 +24°C° 0,1 mm 3 m/s 756 mmHg 79%
    19:00 +21°C° 0,1 mm 2 m/s 755 mmHg 85%
    20:00 +20°C° 0,1 mm 2 m/s 755 mmHg 92%
    21:00 +19°C° 0 mm 2 m/s 755 mmHg 93%
    22:00 +19°C° 0 mm 2 m/s 755 mmHg 94%
    23:00 +18°C° 0 mm 2 m/s 755 mmHg 95%

    Après-demain, 19 Août, Dimanche

    Heure Température Précipitation Vent Pression Humidité
    00:00 +18°C° 0 mm 2 m/s 755 mmHg 96%
    01:00 +18°C° 0 mm 2 m/s 755 mmHg 96%
    02:00 +18°C° 0 mm 2 m/s 755 mmHg 97%
    03:00 +17°C° 0 mm 2 m/s 754 mmHg 97%
    04:00 +17°C° 0 mm 2 m/s 754 mmHg 97%
    05:00 +17°C° 0 mm 2 m/s 754 mmHg 98%
    06:00 +18°C° 0 mm 2 m/s 754 mmHg 92%
    07:00 +18°C° 0 mm 3 m/s 754 mmHg 85%
    08:00 +19°C° 0 mm 3 m/s 754 mmHg 79%
    09:00 +20°C° 0 mm 3 m/s 754 mmHg 70%
    10:00 +21°C° 0 mm 4 m/s 754 mmHg 60%
    11:00 +22°C° 0 mm 4 m/s 753 mmHg 51%
    12:00 +22°C° 0 mm 4 m/s 753 mmHg 54%
    13:00 +22°C° 0 mm 4 m/s 753 mmHg 57%
    14:00 +22°C° 0 mm 5 m/s 753 mmHg 60%
    15:00 +21°C° 0,3 mm 4 m/s 753 mmHg 69%
    16:00 +20°C° 0,3 mm 4 m/s 753 mmHg 78%
    17:00 +19°C° 0,3 mm 3 m/s 753 mmHg 87%
    18:00 +18°C° 0,1 mm 3 m/s 753 mmHg 89%
    19:00 +18°C° 0,1 mm 3 m/s 753 mmHg 92%
    20:00 +17°C° 0,1 mm 2 m/s 753 mmHg 94%
    21:00 +16°C° 0 mm 2 m/s 753 mmHg 95%
    22:00 +16°C° 0 mm 2 m/s 754 mmHg 96%
    23:00 +15°C° 0 mm 2 m/s 754 mmHg 97%

    20 Août, Lundi

    Heure Température Précipitation Vent Pression Humidité
    00:00 +15°C° 0 mm 2 m/s 754 mmHg 97%
    01:00 +14°C° 0 mm 2 m/s 754 mmHg 97%
    02:00 +14°C° 0 mm 2 m/s 754 mmHg 97%
    03:00 +14°C° 0 mm 1 m/s 754 mmHg 97%
    04:00 +13°C° 0 mm 1 m/s 754 mmHg 97%
    05:00 +13°C° 0 mm 1 m/s 754 mmHg 97%
    06:00 +14°C° 0 mm 2 m/s 754 mmHg 94%
    07:00 +15°C° 0 mm 2 m/s 754 mmHg 90%
    08:00 +16°C° 0 mm 2 m/s 754 mmHg 86%
    09:00 +18°C° 0 mm 2 m/s 754 mmHg 76%
    10:00 +19°C° 0 mm 2 m/s 754 mmHg 67%
    11:00 +21°C° 0 mm 2 m/s 754 mmHg 57%
    12:00 +21°C° 0 mm 2 m/s 754 mmHg 54%
    13:00 +23°C° 0 mm 2 m/s 754 mmHg 51%
    14:00 +23°C° 0 mm 2 m/s 754 mmHg 48%
    15:00 +23°C° 0 mm 2 m/s 754 mmHg 50%
    16:00 +23°C° 0 mm 2 m/s 754 mmHg 53%
    17:00 +21°C° 0 mm 2 m/s 754 mmHg 56%
    18:00 +20°C° 0 mm 1 m/s 754 mmHg 63%
    19:00 +19°C° 0 mm 1 m/s 754 mmHg 71%
    20:00 +16°C° 0 mm 1 m/s 754 mmHg 79%
    21:00 +15°C° 0 mm 1 m/s 754 mmHg 82%
    22:00 +13°C° 0 mm 0 m/s 755 mmHg 84%
    23:00 +13°C° 0 mm 0 m/s 755 mmHg 87%

    21 Août, Mardi

    Heure Température Précipitation Vent Pression Humidité
    00:00 +12°C° 0 mm 0 m/s 755 mmHg 88%
    01:00 +12°C° 0 mm 0 m/s 755 mmHg 89%
    02:00 +12°C° 0 mm 0 m/s 755 mmHg 91%
    03:00 +11°C° 0 mm 0 m/s 755 mmHg 92%
    04:00 +11°C° 0 mm 0 m/s 755 mmHg 92%
    05:00 +12°C° 0 mm 1 m/s 755 mmHg 93%
    06:00 +14°C° 0 mm 1 m/s 755 mmHg 86%
    07:00 +16°C° 0 mm 1 m/s 755 mmHg 79%
    08:00 +19°C° 0 mm 1 m/s 755 mmHg 72%
    09:00 +20°C° 0 mm 1 m/s 755 mmHg 66%
    10:00 +21°C° 0 mm 1 m/s 755 mmHg 60%
    11:00 +21°C° 0 mm 2 m/s 754 mmHg 55%
    12:00 +21°C° 0,2 mm 2 m/s 754 mmHg 58%
    13:00 +20°C° 0,2 mm 2 m/s 754 mmHg 62%
    14:00 +20°C° 0,2 mm 2 m/s 753 mmHg 66%
    15:00 +18°C° 0,9 mm 2 m/s 753 mmHg 75%
    16:00 +18°C° 0,9 mm 1 m/s 753 mmHg 83%
    17:00 +16°C° 0,9 mm 1 m/s 752 mmHg 92%
    18:00 +15°C° 0,2 mm 1 m/s 752 mmHg 93%
    19:00 +15°C° 0,2 mm 1 m/s 751 mmHg 94%
    20:00 +15°C° 0,2 mm 1 m/s 751 mmHg 95%
    21:00 +15°C° 0,1 mm 1 m/s 751 mmHg 95%
    22:00 +15°C° 0,1 mm 1 m/s 751 mmHg 96%
    23:00 +15°C° 0,1 mm 1 m/s 751 mmHg 96%

    22 Août, Mercredi

    Heure Température Précipitation Vent Pression Humidité
    00:00 +15°C° 0,1 mm 1 m/s 751 mmHg 97%
    01:00 +15°C° 0,1 mm 1 m/s 751 mmHg 97%
    02:00 +15°C° 0,1 mm 1 m/s 751 mmHg 98%
    03:00 +15°C° 0,1 mm 1 m/s 750 mmHg 98%
    04:00 +16°C° 0,1 mm 1 m/s 750 mmHg 98%
    05:00 +16°C° 0,1 mm 1 m/s 750 mmHg 98%
    06:00 +16°C° 0,1 mm 2 m/s 751 mmHg 96%
    07:00 +17°C° 0,1 mm 2 m/s 751 mmHg 94%
    08:00 +17°C° 0,1 mm 2 m/s 751 mmHg 92%
    09:00 +18°C° 0 mm 3 m/s 751 mmHg 84%
    10:00 +19°C° 0 mm 3 m/s 751 mmHg 75%
    11:00 +21°C° 0 mm 3 m/s 751 mmHg 67%
    12:00 +21°C° 0,1 mm 3 m/s 750 mmHg 67%
    13:00 +21°C° 0,1 mm 3 m/s 750 mmHg 67%
    14:00 +22°C° 0,1 mm 4 m/s 750 mmHg 67%
    15:00 +21°C° 0,2 mm 3 m/s 749 mmHg 72%
    16:00 +21°C° 0,2 mm 3 m/s 749 mmHg 76%
    17:00 +20°C° 0,2 mm 3 m/s 749 mmHg 81%
    18:00 +19°C° 0,2 mm 3 m/s 748 mmHg 84%
    19:00 +18°C° 0,2 mm 3 m/s 748 mmHg 86%
    20:00 +17°C° 0,2 mm 3 m/s 748 mmHg 89%
    21:00 +16°C° 0 mm 3 m/s 748 mmHg 90%
    22:00 +14°C° 0 mm 3 m/s 748 mmHg 90%
    23:00 +13°C° 0 mm 3 m/s 748 mmHg 90%
    Voir plus